Terminal Aerodrome Forecast
Issued by NWS Boston, MA

Home | Current Version | Previous Version | Text Only | Print | Product List | Glossary On
Versions: 1 2 3 4 5 6 7 8 9 10 11 12 13 14 15 16 17 18 19 20 21 22 23 24 25 26 27 28 29 30 31 32 33 34 35 36 37 38 39 40 41 42 43 44 45 46
000
FTUS41 KBOX 202109 AAA
TAFBOS
TAF AMD
KBOS 202109Z 2021/2124 36010KT P6SM OVC025
     FM202200 01007KT 6SM -SHSN OVC020
     FM210200 03007KT 5SM -SHSN OVC015
     FM210700 05007KT 3SM -SHSN OVC015
     FM211600 02007KT P6SM OVC020=

USA.gov is the U.S. government's official web portal to all federal, state and local government web resources and services.